Regional Weather Roundup
Issued by NWS

Home | Current Version | Previous Version | Graphics & Text | Print | Product List | Glossary On
Versions: 1 2 3 4 5 6 7 8 9 10 11 12 13 14 15 16 17 18 19 20 21 22 23 24 25 26 27 28 29 30 31 32 33 34 35 36 37 38 39 40 41 42 43 44 45 46 47 48 49 50
000
ASUS43 KOAX 310302
RWRNE

WEATHER ROUNDUP FOR NEBRASKA
NATIONAL WEATHER SERVICE OMAHA NE
1000 PM CDT SAT AUG 30 2014

NOTES: SATELLITE DATA IS BEING USED TO AUGMENT CLOUD COVER ABOVE
       12000 FEET.
       "FAIR" INDICATES FEW OR NO CLOUDS BELOW 12,000 FEET WITH NO
       SIGNIFICANT WEATHER AND/OR OBSTRUCTIONS TO VISIBILITY.

  * THESE STATIONS DO NOT REPORT WEATHER SUCH AS RAIN...SNOW OR FOG.

NEZ001>004-019>022-054>056-310400-
NEBRASKA PANHANDLE

CITY           SKY/WX    TMP DP  RH WIND       PRES   REMARKS
SCOTTSBLUFF    CLOUDY    74  50  42 S5        29.87R
ALLIANCE       CLOUDY    73  49  42 S16       29.87R
CHADRON        LGT RAIN  70  56  61 SW14G30   29.77R
SIDNEY         CLOUDY    75  47  36 NW18      29.92R
$$

NEZ057>060-069>072-079>082-310400-
SOUTHWEST NEBRASKA

CITY           SKY/WX    TMP DP  RH WIND       PRES   REMARKS
NORTH PLATTE   CLEAR     68  64  87 E10       29.81R
IMPERIAL       PTCLDY    75  55  49 S14       29.83R
LEXINGTON      CLEAR     73  65  77 SE9       29.82S
MCCOOK         CLEAR     77  54  44 S13       29.82R
OGALLALA       PTCLDY    73  55  52 S12G17    29.81R
$$

NEZ005>010-023>029-035>040-094-310400-
NORTH CENTRAL NEBRASKA

CITY           SKY/WX    TMP DP  RH WIND       PRES   REMARKS
VALENTINE      CLEAR     75  63  66 S14       29.75R
AINSWORTH      CLEAR     71  64  78 S12       29.78R
BROKEN BOW     CLEAR     71  65  81 SE8       29.82R
O`NEILL        CLEAR     72  67  84 SE10G17   29.80F
ORD            CLEAR     72  67  84 SE10      29.80S
THEDFORD       CLEAR     73  64  73 SE10      29.80S
$$

NEZ041-046>049-061>064-073>077-083>087-310400-
SOUTH CENTRAL NEBRASKA

CITY           SKY/WX    TMP DP  RH WIND       PRES   REMARKS
GRAND ISLAND   CLEAR     75  65  70 SE14      29.84S
AURORA         CLEAR     70  67  88 SE7       29.85R
HASTINGS       CLEAR     74  63  68 SE12      29.85R
HEBRON         CLEAR     71  64  78 SE6       29.86R
HOLDREGE       CLEAR     71  62  73 SE8       29.84R
KEARNEY *      CLEAR     72  64  78 SE12      29.84R
$$

NEZ011>018-030>034-042>045-310400-
NORTHEAST NEBRASKA

CITY           SKY/WX    TMP DP  RH WIND       PRES   REMARKS
NORFOLK        CLEAR     69  63  81 SE10      29.84S
ALBION         CLEAR     69  64  85 SE7       29.83S
BLAIR          CLEAR     71  64  77 SE7       29.87F
FREMONT        CLEAR     72  64  77 SE6       29.86S
TEKAMAH        CLEAR     69  65  86 SE6       29.85S
WAYNE          CLEAR     67  65  91 SE8       29.85S
$$

NEZ050>053-065>068-078-088>093-310400-
SOUTHEAST NEBRASKA

CITY           SKY/WX    TMP DP  RH WIND       PRES   REMARKS
LINCOLN        CLEAR     76  64  66 SE7       29.86S
OMAHA EPPLEY   CLEAR     72  64  76 SE8       29.87S
BEATRICE       CLEAR     74  65  74 SE7       29.86F
FALLS CITY     CLEAR     72  68  87 SE3       29.87F
NEBRASKA CITY  CLEAR     71  66  87 S5        29.88S
PLATTSMOUTH    CLEAR     71  64  76 SE6       29.88S
$$

NEZ044-045-051>053-067-310400-
OMAHA AREA

CITY           SKY/WX    TMP DP  RH WIND       PRES   REMARKS
OMAHA EPPLEY   CLEAR     72  64  76 SE8       29.87S
BLAIR          CLEAR     71  64  77 SE7       29.87F
FREMONT        CLEAR     72  64  77 SE6       29.86S
MILLARD        CLEAR     71  65  80 CALM      29.86S
OFFUTT AFB     CLEAR     68  68  99 E6        29.86F
PLATTSMOUTH    CLEAR     71  64  76 SE6       29.88S
WAHOO          FAIR      69  64  85 SE5       29.86S
$$



USA.gov is the U.S. government's official web portal to all federal, state and local government web resources and services.